SKYNET 5D 1 39034U 12075A 21061.90049443 .00000091 00000-0 00000-0 0 9997 2 39034 0.0732 5.1224 0004082 335.9546 196.6988 1.00269912 29790 MEXSAT 3 1 39035U 12075B 21062.13670389 -.00000034 00000-0 00000+0 0 9990 2 39035 0.0026 177.0937 0002096 168.6996 109.7227 1.00270599 30101 ARIANE 5 R/B 1 39036U 12075C 21061.67956820 .00000077 00000-0 11016-3 0 9995 2 39036 2.9103 19.5157 7194690 231.7222 39.3714 2.37152711 69877 ARIANE 5 DEB [SYLDA] 1 39037U 12075D 21061.85571807 .00162464 00000-0 77484-2 0 9993 2 39037 1.8327 295.2546 6278786 63.0276 346.5935 3.68758094 89637